Location: The Saddle
(36.8333°N, 80.3417°W)
Time: 18:52:41
(UTC-05:00)

A-11 Canister half - Pass Details

Date: 13 December 2023
Orbit: 1512 x 1687 km, 47.2° (Epoch: 26 February)

Event Time Altitude Azimuth Distance (km) Brightness Sun altitude
Rises 21:16:31 0° 224° (SW) 4,648 11.9 -49.3°
Reaches altitude 10° 21:19:32 10° 222° (SW) 3,677 11.2 -49.9°
Enters shadow 21:21:34 19° 220° (SW) 3,041 10.7 -50.3°
Maximum altitude 21:28:44 71° 141° (SE) 1,621 - -51.7°
Drops below altitude 10° 21:38:17 10° 59° (ENE) 3,804 - -53.6°
Sets 21:41:26 0° 58° (ENE) 4,816 - -54.2°
